KT4FD Weather Reports


time (UTC)temp
C
wind
direction
speed
KPH
gust
KPH
rain 1hr
cm
rain 24hr
cm
rain mn
cm
humidity
%
barometer
mb
20260506160003 17 217 0.0 8.0 0.13 0.20 0.20 85 1015.9
20260506155003 17 157 1.6 4.8 0.13 0.20 0.20 85 1015.6
20260506154003 17 181 1.6 12.9 0.13 0.20 0.20 85 1017.5
20260506153003 17 202 3.2 4.8 0.05 0.15 0.15 85 1017.7
20260506152004 17 202 1.6 4.8 0.15 0.15 0.15 85 1016.9
20260506141003 17 211 4.8 9.7 0.00 0.00 0.00 84 1016.4
20260506140003 17 211 3.2 11.3 0.00 0.00 0.00 84 1016.4
20260506135004 17 223 8.0 12.9 0.00 0.00 0.00 84 1016.3
20260506134003 17 213 6.4 12.9 0.00 0.00 0.00 84 1016.2
20260506133003 17 208 4.8 9.7 0.00 0.00 0.00 84 1016.3
20260506132004 17 213 3.2 9.7 0.00 0.00 0.00 85 1016.2
20260506110003 16 203 3.2 4.8 0.00 0.00 0.00 82 1015.3
20260506105003 16 204 3.2 4.8 0.00 0.00 0.00 82 1015.6
20260506104003 16 204 3.2 4.8 0.00 0.00 0.00 80 1015.4
20260506103003 16 204 0.0 0.0 0.00 0.00 0.00 80 1015.2
20260506102002 16 205 0.0 0.0 0.00 0.00 0.00 78 1015.2
20260506101003 16 205 0.0 0.0 0.00 0.00 0.00 78 1015.0
20260506100002 16 205 0.0 0.0 0.00 0.00 0.00 79 1014.9
20260506095002 16 205 0.0 0.0 0.00 0.00 0.00 79 1014.7
20260506094003 16 205 0.0 0.0 0.00 0.00 0.00 79 1014.7
20260506093003 16 205 0.0 0.0 0.00 0.00 0.00 78 1014.5
20260506092003 16 205 0.0 0.0 0.00 0.00 0.00 77 1014.6
20260506091003 16 205 0.0 0.0 0.00 0.00 0.00 77 1014.2
20260506073003 17 205 0.0 3.2 0.00 0.00 0.00 71 1015.1
20260506072003 17 205 1.6 3.2 0.00 0.00 0.00 71 1014.9
20260506071002 17 205 0.0 9.7 0.00 0.00 0.00 68 1014.9
20260506051003 17 210 0.0 0.0 0.00 0.00 0.00 70 1016.1
20260506034003 16 204 3.2 12.9 0.00 0.00 0.00 69 1016.1
20260506033004 16 172 0.0 0.0 0.00 0.00 0.00 71 1016.1
20260506032003 16 172 0.0 0.0 0.00 0.00 0.00 76 1016.3
20260506031003 16 172 0.0 0.0 0.00 0.00 0.00 75 1016.4
20260506030003 16 172 0.0 0.0 0.00 0.00 0.00 75 1016.5
20260506025003 16 173 0.0 0.0 0.00 0.00 0.00 73 1016.3
20260506024003 16 172 0.0 0.0 0.00 0.00 0.00 71 1016.0
20260506023003 16 173 0.0 0.0 0.00 0.00 0.00 74 1016.1
20260506022003 16 173 0.0 0.0 0.00 0.00 0.00 72 1016.3
20260506021003 16 172 0.0 0.0 0.00 0.00 0.00 73 1016.2
20260506020003 16 172 0.0 0.0 0.00 0.00 0.00 72 1016.1
20260506015003 16 172 0.0 0.0 0.00 0.00 0.00 73 1016.0
20260506014003 16 172 0.0 0.0 0.00 0.00 0.00 72 1015.9
20260506013003 16 172 0.0 0.0 0.00 0.00 0.00 71 1015.7
20260506012003 16 172 0.0 0.0 0.00 0.00 0.00 70 1015.7
20260506011004 17 172 0.0 0.0 0.00 0.00 0.00 67 1015.7
20260506010003 17 172 0.0 0.0 0.00 0.00 0.00 65 1015.6
20260506005003 18 172 0.0 3.2 0.00 0.00 0.00 63 1015.6
20260506004003 18 172 0.0 0.0 0.00 0.00 0.00 62 1015.7
20260506003003 19 172 0.0 0.0 0.00 0.00 0.00 61 1015.8
20260506002004 19 172 0.0 3.2 0.00 0.00 0.00 59 1015.6
20260506001004 20 172 0.0 0.0 0.00 0.00 0.00 57 1015.5
20260506000004 20 172 0.0 1.6 0.00 0.00 0.00 56 1015.6
20260505235003 21 176 0.0 0.0 0.00 0.00 0.00 57 1015.6
20260505234003 21 223 0.0 0.0 0.00 0.00 0.00 56 1015.5
20260505233003 21 292 0.0 1.6 0.00 0.00 0.00 53 1015.4
20260505232003 21 270 0.0 1.6 0.00 0.00 0.00 52 1015.7
20260505231003 22 270 1.6 4.8 0.00 0.00 0.00 51 1015.8
20260505230003 22 271 0.0 3.2 0.00 0.00 0.00 51 1015.7
20260505225003 22 271 1.6 4.8 0.00 0.00 0.00 48 1015.7
20260505214003 23 162 4.8 19.3 0.00 0.00 0.00 46 1015.7
20260505213003 24 188 4.8 11.3 0.00 0.00 0.00 45 1015.7
20260505212003 24 187 8.0 16.1 0.00 0.00 0.00 44 1015.6
20260505211003 23 202 8.0 16.1 0.00 0.00 0.00 44 1015.8
20260505210003 23 202 8.0 27.4 0.00 0.00 0.00 41 1016.0
20260505205003 24 187 9.7 24.1 0.00 0.00 0.00 42 1015.7
20260505204003 25 220 9.7 20.9 0.00 0.00 0.00 43 1015.8
20260505203003 25 210 8.0 20.9 0.00 0.00 0.00 45 1015.7
20260505202003 25 192 8.0 16.1 0.00 0.00 0.00 45 1015.9
20260505201003 24 198 9.7 24.1 0.00 0.00 0.00 44 1016.1
20260505200004 25 180 11.3 19.3 0.00 0.00 0.00 42 1016.1
20260505195003 25 205 9.7 24.1 0.00 0.00 0.00 43 1016.2
20260505183003 23 189 4.8 24.1 0.00 0.00 0.00 46 1017.0
20260505182003 23 223 9.7 20.9 0.00 0.00 0.00 46 1017.3
20260505181004 23 225 12.9 24.1 0.00 0.00 0.00 47 1017.4
20260505180003 22 217 9.7 24.1 0.00 0.00 0.00 50 1017.5
20260505175003 22 214 11.3 24.1 0.00 0.00 0.00 51 1017.8
20260505174003 22 214 9.7 19.3 0.00 0.00 0.00 51 1018.0